Location: Julian California
(33.0790°N, 116.6010°W)
Time: 06:17:30
(UTC-07:00)

NOSS 2-2 (D) - Pass Details

Date: 19 May 2017
Orbit: 545 x 1665 km, 63.3° (Epoch: 27 May)

Event Time Altitude Azimuth Distance (km) Brightness Sun altitude
Exits shadow 21:47:14 21° 221° (SW) 1,246 5.0 -22.3°
Maximum altitude 21:49:45 70° 301° (WNW) 594 3.5 -22.7°
Drops below altitude 10° 21:54:00 10° 26° (NNE) 1,965 6.4 -23.3°
Sets 21:56:27 0° 28° (NNE) 2,983 7.3 -23.7°
